This is the latest recevied weather packets stored in our database for station/object DF1GD-10. If no packets are shown the sender has not sent any weather packets the latest 10 day(s).
| Time | Temp. | Humidity | Pressure | Rain* | Wind** | Luminosity | Snow |
|---|---|---|---|---|---|---|---|
| 1788554621 | 23.89° C | 31% | 1015 hPa | - | - | - | - |
| 1788553720 | 24.44° C | 31% | 1015 hPa | - | - | - | - |
| 1788552820 | 24.44° C | 31% | 1015 hPa | - | - | - | - |
| 1788551920 | 24.44° C | 32% | 1014.9 hPa | - | - | - | - |
| 1788551020 | 24.44° C | 33% | 1014.9 hPa | - | - | - | - |
| 1788550120 | 25° C | 34% | 1014.6 hPa | - | - | - | - |
| 1788549220 | 25° C | 34% | 1014.4 hPa | - | - | - | - |
| 1788548320 | 25.56° C | 34% | 1014.2 hPa | - | - | - | - |
| 1788547419 | 26.11° C | 32% | 1014 hPa | - | - | - | - |
| 1788546519 | 26.67° C | 31% | 1013.8 hPa | - | - | - | - |
| 1788545619 | 26.67° C | 30% | 1013.7 hPa | - | - | - | - |
| 1788544719 | 27.22° C | 29% | 1013.7 hPa | - | - | - | - |
| 1788543819 | 27.78° C | 29% | 1013.5 hPa | - | - | - | - |
| 1788542941 | 28.33° C | 26% | 1013.5 hPa | - | - | - | - |
| 1788542019 | 29.44° C | 25% | 1013.5 hPa | - | - | - | - |
| 1788541119 | 30° C | 24% | 1013.5 hPa | - | - | - | - |
| 1788540218 | 30.56° C | 24% | 1013.6 hPa | - | - | - | - |
| 1788539318 | 30° C | 23% | 1013.7 hPa | - | - | - | - |
| 1788538418 | 31.11° C | 21% | 1013.7 hPa | - | - | - | - |
| 1788537518 | 32.22° C | 20% | 1013.8 hPa | - | - | - | - |
| 1788536618 | 32.22° C | 20% | 1013.9 hPa | - | - | - | - |
| 1788535718 | 33.33° C | 18% | 1013.9 hPa | - | - | - | - |
| 1788534818 | 32.78° C | 18% | 1014 hPa | - | - | - | - |
| 1788533917 | 32.78° C | 18% | 1014 hPa | - | - | - | - |
| 1788533017 | 33.33° C | 17% | 1014.1 hPa | - | - | - | - |
* Rain since midnight (hover to see other rain measurements)
** Current wind speed in m/s (hover to see current wind gust speed)